Regional Weather Roundup
Issued by NWS

Home | Current Version | Previous Version | Text Only | Print | Product List | Glossary Off
Versions: 1 2 3 4 5 6 7 8 9 10 11 12 13 14 15 16 17 18 19 20 21 22 23 24 25 26 27 28 29 30 31 32 33 34 35 36 37 38 39 40 41 42 43 44 45 46 47 48 49 50

830
ASUS44 KJAN 210603
RWRMS

MISSISSIPPI HOURLY WEATHER ROUNDUP
NATIONAL WEATHER SERVICE JACKSON MS
1200 AM CST SUN DEC 21 2014

NOTE: "FAIR: INDICATES FEW OR NO CLOUDS BELOW 12,000 FEET WITH NO
SIGNIFICANT WEATHER AND/OR OBSTRUCTIONS TO VISIBILITY.

MSZ001>002-007>008-010>013-018>021-025>028-034>036-210700-
NORTHWEST MISSISSIPPI

CITY           SKY/WX    TMP DP  RH WIND       PRES   REMARKS
CLARKSDALE     FAIR      37  36  93 NE6       30.24F WCI  33
CLEVELAND      FAIR      38  36  93 NE5       30.23S WCI  34
GREENWOOD      CLEAR     34  32  92 NE3       30.22F
6HR MIN TEMP:  33; 6HR MAX TEMP:  45;

GREENVILLE     CLEAR     38  34  85 N7        30.22F WCI  33
6HR MIN TEMP:  38; 6HR MAX TEMP:  47;

GRENADA        FAIR      32  32 100 CALM      30.24S
OLIVE BRANCH   CLEAR     36  34  93 CALM      30.24F
OXFORD         FAIR      32  30  93 E3        30.24F
TUNICA         CLEAR     34  34 100 CALM      30.25S
$$

MSZ003>006-009-014>017-022>024-029>033-037>039-210700-
NORTHEAST MISSISSIPPI

CITY           SKY/WX    TMP DP  RH WIND       PRES   REMARKS
COLUMBUS AFB   CLEAR     34  33  95 NW1       30.22F
6HR MIN TEMP:  34; 6HR MAX TEMP:  43;

CORINTH        FAIR      32  28  86 CALM      30.23F
GOLDN TRIANGLE CLEAR     36  32  87 CALM      30.21S
STARKVILLE     FAIR      34  34 100 N3        30.21F
TUPELO         CLEAR     33  29  85 NE6       30.24S WCI  28
6HR MIN TEMP:  33; 6HR MAX TEMP:  43;

$$

MSZ040-058-210700-
CENTRAL MISSISSIPPI

CITY           SKY/WX    TMP DP  RH WIND       PRES   REMARKS
JACKSON INTL   CLEAR     40  37  89 NE5       30.19F
6HR MIN TEMP:  38; 6HR MAX TEMP:  47;

JACKSON HAWKNS CLEAR     41  38  89 CALM      30.19F
6HR MIN TEMP:  41; 6HR MAX TEMP:  51;

MERIDIAN KEY   CLEAR     35  34  96 N3        30.19S
6HR MIN TEMP:  35; 6HR MAX TEMP:  46;

MERIDIAN NAS   CLEAR     35  34  96 CALM      30.20S
6HR MIN TEMP:  35; 6HR MAX TEMP:  46;

RAYMOND        FAIR      36  32  87 MISG      30.20S FOG
VICKSBURG      CLEAR     40  36  86 NE5       30.21S
6HR MIN TEMP:  40; 6HR MAX TEMP:  50;

$$

MSZ059>079-210700-
SOUTH MISSISSIPPI

CITY           SKY/WX    TMP DP  RH WIND       PRES   REMARKS
HATTIESBURG    CLOUDY    46  44  93 CALM      30.17F
6HR MIN TEMP:  46; 6HR MAX TEMP:  52;

MCCOMB         PTCLDY    44  42  93 N5        30.17S
6HR MIN TEMP:  42; 6HR MAX TEMP:  50;

NATCHEZ        CLEAR     39  36  87 CALM      30.19F
6HR MIN TEMP:  39; 6HR MAX TEMP:  52;

PINE BELT      CLOUDY    45  39  81 NE3       30.17F
6HR MIN TEMP:  43; 6HR MAX TEMP:  52;

$$

MSZ080>082-210700-
COASTAL MISSISSIPPI

CITY           SKY/WX    TMP DP  RH WIND       PRES   REMARKS
BILOXI         NOT AVBL
PASCAGOULA     CLOUDY    51  47  86 N7        30.15F
6HR MIN TEMP:  51; 6HR MAX TEMP:  51;

GULFPORT       CLOUDY    51  46  83 NE6       30.15F
6HR MIN TEMP:  51; 6HR MAX TEMP:  52;

$$



USA.gov is the U.S. government's official web portal to all federal, state and local government web resources and services.